Change the Weather History Date:

Friday, September 20, 2013

  Actual Average Record
Temperature  
Mean Temperature 70 °F -  
Max Temperature 81 °F 73 °F 84 °F (1999)
Min Temperature 59 °F 56 °F 53 °F (2008)
Cooling Degree Days 5    
Growing Degree Days 20 (Base 50)    
Moisture  
Dew Point 62 °F    
Average Humidity 74    
Maximum Humidity 94    
Minimum Humidity 29    
Precipitation  
Precipitation 0.00 in 0.14 in - ()
Sea Level Pressure  
Sea Level Pressure 29.91 in    
Wind  
Wind Speed 6 mph ()    
Max Wind Speed 10 mph    
Max Gust Speed -    
Visibility 7.9 miles    
Events      
Averages and records for this station are not official NWS values.
T = Trace of Precipitation, MM = Missing Value Source: Averaged Metar Reports

Daily Weather History Graph

Daily Weather History Graph

Search for Another Location

Airport or City:

Trip Planner

Search our weather history database for the weather conditions in past years. The results will help you decide how hot, cold, wet, or windy it might be!

Date:

Astronomy

Sep. 20, 2013 Rise Set
Actual Time 6:55 AM CEST 7:10 PM CEST
Civil Twilight 6:27 AM CEST 7:38 PM CEST
Nautical Twilight 5:55 AM CEST 8:11 PM CEST
Astronomical Twilight 5:21 AM CEST 8:44 PM CEST
Moon 7:32 PM CEST (9/20) 7:53 AM CEST (9/20)
Length of Visible Light 13h 10m
Length of Day
12h 15m
Full, 99% of the Moon is Illuminated
Sep 20
Full
Sep 27
Last Quarter
Oct 5
New
Oct 12
First Quarter
Oct 19
Full

Hourly Weather History & Observations

Time (CEST) Temp. Heat Index Dew Point Humidity Pressure Visibility Wind Dir Wind Speed Gust Speed Precip Events Conditions
12:55 AM 64.4 °F - 62.6 °F 94% 29.83 in 6.2 mi East 9.2 mph - N/A   Partly Cloudy
1:55 AM 66.2 °F - 62.6 °F 88% 29.83 in 6.2 mi East 8.1 mph - N/A   Partly Cloudy
2:00 AM 65 °F - 62 °F 88% 29.84 in 7 mi East 8.1 mph - -   Scattered Clouds
2:55 AM 64.4 °F - 62.6 °F 94% 29.83 in 6.2 mi ESE 6.9 mph - N/A   Partly Cloudy
3:55 AM 64.4 °F - 60.8 °F 88% 29.83 in 6.2 mi East 10.4 mph - N/A   Partly Cloudy
4:55 AM 62.6 °F - 59.0 °F 88% 29.83 in 6.2 mi NNE 1.2 mph - N/A   Partly Cloudy
5:00 AM 62 °F - 60 °F 89% 29.85 in 7 mi NNE 1.2 mph - -   Scattered Clouds
5:55 AM 60.8 °F - 59.0 °F 94% 29.83 in 6.2 mi East 4.6 mph - N/A   Partly Cloudy
6:55 AM 69.8 °F - 66.2 °F 88% 29.86 in 6.2 mi NNE 6.9 mph - N/A   Partly Cloudy
7:55 AM 64.4 °F - 60.8 °F 88% 29.86 in 6.2 mi ENE 3.5 mph - N/A   Partly Cloudy
8:00 AM 64 °F - 62 °F 90% 29.88 in 9 mi ENE 3.5 mph - -   Scattered Clouds
8:55 AM 69.8 °F - 60.8 °F 73% 29.89 in - NNE 5.8 mph - N/A   Clear
9:55 AM 71.6 °F - 59.0 °F 64% 29.89 in - NNE 4.6 mph - N/A   Clear
10:55 AM 77.0 °F - 57.2 °F 50% 29.92 in - NW 3.5 mph - N/A   Clear
11:00 AM 77 °F - 57 °F 39% 29.92 in 12 mi NW 3.5 mph - -   Clear
11:55 AM 78.8 °F - 55.4 °F 44% 29.92 in 6.2 mi SW 4.6 mph - N/A   Partly Cloudy
12:55 PM 80.6 °F 80.3 °F 53.6 °F 39% 29.92 in 6.2 mi SW 8.1 mph - N/A   Scattered Clouds
1:55 PM 80.6 °F 80.3 °F 53.6 °F 39% 29.92 in 6.2 mi SSW 8.1 mph - N/A   Scattered Clouds
2:00 PM 80 °F - 53 °F 29% 29.94 in 16 mi SSW 8.1 mph - -   Partly Cloudy
2:55 PM 78.8 °F - 59.0 °F 51% 29.95 in 6.2 mi SSW 10.4 mph - N/A   Partly Cloudy
3:55 PM 78.8 °F - 64.4 °F 61% 29.95 in 6.2 mi SSW 9.2 mph - N/A   Partly Cloudy
4:55 PM 77.0 °F - 64.4 °F 65% 29.95 in 6.2 mi SW 8.1 mph - N/A   Partly Cloudy
5:00 PM 77 °F - 64 °F 56% 29.95 in 16 mi SW 8.1 mph - -   Scattered Clouds
5:55 PM 75.2 °F - 62.6 °F 65% 29.95 in - SW 4.6 mph - N/A   Clear
6:55 PM 75.2 °F - 68.0 °F 78% 29.95 in - SW 5.8 mph - N/A   Clear
7:55 PM 73.4 °F - 69.8 °F 88% 29.98 in - West 2.3 mph - N/A   Clear
8:00 PM 73 °F - 69 °F 83% 29.98 in 12 mi West 2.3 mph - -  
8:55 PM 69.8 °F - 66.2 °F 88% 29.98 in - North 2.3 mph - N/A   Clear
9:55 PM 68.0 °F - 64.4 °F 88% 29.98 in - NNE 4.6 mph - N/A   Clear
10:55 PM 66.2 °F - 64.4 °F 94% 30.01 in - NNE 4.6 mph - N/A   Clear
11:00 PM 67 °F - 65 °F 90% 30.02 in 9 mi NNE 4.6 mph - -  
11:55 PM 64.4 °F - 62.6 °F 94% 30.01 in - NNE 4.6 mph - N/A   Clear